Simultaneous Nadir Overpasses (SNOs) Predictions

Prediction of SNOs between NOAA-19 and TERRA Satellite Orbit:

Table of predicted SNOs for the next 14.0 days since TLE Epoch: 12/30/2011
Index Date Time (NOAA-19) NOAA-19 Lat,Lon TERRA Lat,Lon Distance(km) Time Diff (sec)
1 12/31/2011 22:10:38 72.44,-159.01 72.40,-148.49 352.91 34
2 12/31/2011 23:00:30 -69.10, 13.91 -69.07, 14.03 5.79 71
3 12/31/2011 23:51:35 68.88,-178.57 68.86,-178.60 3.03 25
4 01/01/2012 00:42:05 -67.48, -9.49 -67.57, -12.50 128.26 64
5 01/03/2012 02:55:01 70.96, 132.54 70.91, 137.92 195.59 56
6 01/03/2012 03:45:20 -68.98, -57.15 -68.98, -57.16 0.51 40
7 01/03/2012 04:36:26 68.83, 110.28 68.82, 110.28 1.55 58
8 01/03/2012 05:26:32 -66.12, -79.15 -66.13, -85.10 267.53 48
9 01/05/2012 07:39:29 69.72, 63.31 69.60, 64.95 64.49 69
10 01/05/2012 08:30:11 -68.92,-128.27 -68.93,-128.29 1.91 7
11 01/05/2012 09:21:05 68.14, 39.97 68.21, 38.46 62.84 69
12 01/07/2012 11:34:04 -72.34,-179.67 -72.30,-169.53 342.11 36
13 01/07/2012 12:24:08 69.04, -6.92 69.03, -6.86 2.26 57
14 01/07/2012 13:15:02 -68.85, 160.60 -68.87, 160.57 2.66 26
15 01/07/2012 14:05:33 66.86, -29.68 66.91, -34.07 191.69 57
16 01/09/2012 16:18:27 -70.85, 111.85 -70.78, 116.86 183.24 58
17 01/09/2012 17:08:58 68.94, -78.00 68.96, -78.03 1.89 25
18 01/09/2012 17:59:53 -68.79, 89.47 -68.80, 89.40 2.90 59
19 01/09/2012 18:49:56 65.30, -99.20 65.30,-106.74 350.46 35
20 01/11/2012
